Location: *
(38.8181°S, 103.0319°E)
Time: 02:40:57
(UTC+00:00)

Daily predictions for brighter satellites

Satellite Brightness Start Highest point End
(mag) Time Altitude Azimuth Time Altitude Azimuth Time Altitude Azimuth
Cosmos 1766 3.5 11:28:29 10° S 11:32:35 79° W 11:36:36 10° N
Cosmos 1777 Rocket 4.0 11:29:38 10° N 11:34:51 68° ENE 11:40:06 10° SSE
SMAP 3.2 11:32:13 10° SSE 11:36:59 86° WSW 11:41:40 10° NNW
Cosmos 2154 Rocket 4.1 11:30:57 10° S 11:37:06 54° E 11:43:10 10° NNE
Cosmos 2074 Rocket 4.3 11:32:26 10° S 11:38:47 76° W 11:45:02 10° N
CORIOLIS 4.1 11:34:11 10° SSE 11:39:40 77° ENE 11:45:03 10° N
Genesis I 4.3 11:40:03 10° S 11:43:24 27° SE 11:46:33 11° ENE
Cosmos 1602 Rocket 4.4 11:43:00 10° NNW 11:47:26 59° W 11:51:58 10° S
Cosmos 1758 3.4 11:45:17 10° S 11:49:26 61° E 11:53:31 10° NNE
COSMOS 2455 3.4 11:43:35 10° NW 11:49:33 64° WSW 11:55:36 10° SSE
Cosmos 2341 Rocket 4.3 11:43:45 10° S 11:49:54 48° ESE 11:55:55 10° NNE
Cosmos 1842 4.1 11:47:43 10° NNW 11:51:35 56° W 11:55:29 10° S
ERS-2 3.3 11:50:41 10° S 11:54:19 49° WSW 11:57:54 10° NNW
